Lapse_Rate
6.2 6.6 7.0 6.7 6.7 7.0 7.0 7.0 6.9 6.8 6.5 6.2 6.1 5.9 5.5 5.5 5.1 5.0 5.1 5.1 5.7 5.9 5.5 5.2 5.3 5.5 5.5 5.7 5.8 5.8 5.7 5.9 5.7 5.8 5.6 5.6 5.7 5.8 5.8 5.8 5.8 6.0 6.1 5.9
6.3 6.8 6.8 6.8 6.8 7.0 7.0 7.1 7.1 6.9 6.8 6.4 6.1 5.8 5.4 5.7 5.6 5.2 5.2 5.2 5.5 5.2 5.6 5.5 5.5 5.5 5.5 5.6 5.7 5.9 5.9 6.0 5.8 5.9 5.8 5.8 5.9 5.9 5.9 5.8 5.7 5.8 5.8 5.7
6.4 6.7 6.8 6.8 7.0 7.2 7.1 7.2 7.4 7.1 6.8 6.5 6.2 5.9 5.4 5.5 5.3 5.1 5.0 5.2 5.4 5.8 5.4 5.6 5.5 5.7 5.4 5.4 5.6 5.8 6.1 6.1 5.8 5.8 6.0 6.1 6.0 6.0 6.0 5.9 5.9 5.9 5.9 5.8
6.6 6.7 6.7 6.8 6.8 7.0 7.3 7.4 7.3 7.3 7.1 6.8 6.4 5.9 6.5 6.2 5.2 5.4 5.2 5.3 5.4 5.4 5.4 5.8 5.7 5.8 5.6 5.3 5.6 5.7 6.2 6.3 6.1 5.7 5.9 6.1 6.0 6.0 5.9 5.9 5.9 5.9 5.9 5.8
6.9 6.8 6.8 6.7 6.9 7.0 7.3 7.5 7.4 7.2 7.1 6.8 6.5 6.5 7.3 6.6 6.1 5.9 5.6 5.4 5.3 5.5 5.5 5.7 5.9 5.6 5.7 5.6 5.8 5.8 6.0 6.1 6.2 6.0 5.8 5.9 5.9 6.0 6.0 6.0 6.0 5.9 5.8 5.6
6.9 6.6 6.6 7.0 7.2 7.1 7.4 7.9 7.5 6.9 6.5 6.3 7.0 6.7 6.8 6.7 6.6 6.2 5.3 5.0 5.3 5.5 5.5 5.7 5.6 5.6 5.5 5.6 5.6 6.0 6.0 5.9 6.2 6.2 6.0 5.8 5.7 5.9 6.0 6.0 6.0 6.0 6.1 6.0
6.8 6.8 7.0 7.1 7.0 7.1 7.3 7.7 6.8 6.2 5.9 5.8 7.0 6.6 7.1 6.7 6.4 6.2 5.9 5.5 5.3 5.6 5.5 5.5 5.3 5.7 5.5 5.8 5.7 6.0 6.1 6.1 6.1 6.2 6.0 5.8 5.6 5.6 5.9 5.8 5.9 6.0 5.9 5.8
7.4 7.5 7.6 7.6 7.4 7.4 7.6 7.9 7.5 6.2 5.4 6.3 6.8 6.4 6.7 6.8 6.7 5.8 5.7 5.7 5.7 5.7 5.6 5.6 5.5 5.7 5.4 5.4 5.5 5.6 6.0 6.0 6.1 6.2 5.9 5.8 5.8 5.7 5.8 5.7 5.7 5.8 5.8 5.9
7.5 7.8 7.8 8.0 8.1 8.1 7.6 7.7 8.5 7.8 7.1 6.8 6.8 6.6 7.1 7.0 6.5 6.0 5.7 5.8 5.2 4.9 5.4 5.7 5.7 5.9 5.8 5.3 5.4 5.5 5.4 5.4 6.0 5.9 5.9 5.8 5.7 5.8 5.7 5.6 5.7 5.8 5.9 5.8
7.7 7.9 8.0 8.3 8.3 8.2 8.1 8.5 7.9 7.9 6.1 6.6 5.9 6.3 6.8 7.2 6.6 6.4 6.0 6.0 5.8 5.7 5.8 5.5 5.6 5.6 5.4 5.3 5.4 5.3 5.3 5.1 5.5 5.8 5.8 5.7 5.8 5.7 5.8 5.8 5.6 5.8 5.9 5.8
8.0 7.9 8.2 8.4 8.3 8.4 8.5 8.3 8.5 8.6 8.1 6.0 5.6 6.3 7.4 7.2 6.9 6.8 6.2 6.3 5.9 5.9 6.1 5.7 5.4 5.5 5.6 5.1 5.5 5.3 5.4 5.3 5.3 5.9 5.7 5.7 5.9 5.9 5.8 5.9 5.8 5.9 5.7 5.7
8.3 8.1 8.4 8.4 8.3 8.6 8.8 8.6 8.6 8.8 7.5 7.7 7.3 6.5 7.1 7.1 6.5 6.4 6.3 6.5 6.2 5.7 5.6 6.4 6.3 5.5 5.9 5.1 5.5 5.3 5.2 5.4 5.4 5.6 5.9 5.7 5.8 6.0 6.0 5.9 5.8 5.7 5.7 5.7
8.5 8.3 8.2 8.6 8.5 8.5 8.5 8.5 8.7 8.6 8.2 8.2 7.5 6.9 7.5 7.2 6.4 6.1 6.1 6.4 6.5 6.1 5.8 5.6 5.9 6.0 5.3 5.8 5.5 5.7 5.4 5.4 5.4 5.6 5.6 5.6 5.5 5.8 5.8 5.9 5.7 5.8 5.7 5.8
8.5 8.6 8.4 8.3 8.0 8.1 8.3 8.3 8.4 8.6 8.7 8.4 8.2 8.0 8.1 7.8 7.3 6.5 6.5 6.8 6.7 6.2 5.9 5.9 5.7 5.5 5.2 5.1 5.2 5.3 5.3 5.3 5.2 5.4 5.7 5.3 5.4 5.6 5.6 5.7 5.8 5.7 5.8 5.6
8.3 8.4 8.4 8.3 8.3 8.0 7.9 8.0 8.3 8.4 8.6 8.9 8.6 8.2 8.3 8.3 8.0 7.2 7.1 6.8 6.7 6.4 6.0 6.0 5.6 5.7 5.7 4.8 4.9 5.1 5.4 5.3 5.5 5.3 5.5 5.7 5.7 5.7 5.8 5.7 5.9 5.7 5.7 5.8
8.4 8.1 8.2 8.1 8.5 8.1 8.1 7.9 8.3 8.3 8.3 8.3 8.5 8.3 8.4 8.1 7.7 7.7 7.2 6.8 6.9 6.0 5.8 5.8 6.0 5.8 5.3 5.5 5.1 5.2 4.7 5.0 5.0 4.9 5.0 6.0 6.4 6.1 5.9 5.7 5.8 5.8 5.8 5.9
8.5 8.2 8.1 8.1 8.2 8.1 8.2 7.7 7.5 7.7 8.0 8.1 8.7 8.7 8.6 8.1 8.0 7.7 7.6 7.0 7.1 6.3 5.8 6.0 6.1 6.2 6.0 5.8 5.3 5.4 5.3 4.9 5.0 5.3 5.7 5.6 6.6 5.8 5.6 5.7 5.7 5.8 5.7 5.6
8.6 8.5 8.2 8.0 7.8 7.3 8.0 7.6 7.1 7.3 7.7 8.0 8.2 8.5 8.8 8.4 7.1 6.9 6.8 6.0 6.2 5.9 5.9 5.9 6.0 6.0 6.1 6.4 6.3 6.4 5.8 5.6 5.5 5.7 6.3 6.0 5.8 5.7 5.8 5.5 5.6 5.6 5.6 5.7
8.4 8.6 8.6 8.3 7.9 7.5 8.0 7.6 7.8 7.4 7.3 7.5 7.6 8.1 7.7 7.3 6.6 6.2 6.0 6.0 5.8 5.9 5.8 5.9 6.0 6.4 6.2 6.4 6.3 6.4 6.3 6.1 6.1 6.2 6.5 5.9 5.6 5.3 5.2 5.3 5.9 5.8 6.0 5.8
8.2 8.3 8.4 8.2 7.8 7.0 8.0 8.0 7.8 7.6 7.4 7.4 7.4 7.2 7.6 7.2 6.7 6.7 6.2 6.1 6.0 5.6 5.7 5.7 5.9 6.3 6.1 6.3 6.3 6.2 6.5 6.6 6.6 6.5 6.5 6.1 5.8 5.7 5.6 5.6 5.7 6.2 5.9 6.1
7.9 8.0 8.0 7.8 7.7 7.3 7.9 7.8 7.7 7.6 7.8 7.6 6.9 7.1 7.0 7.2 7.2 6.8 6.0 5.7 5.7 5.8 5.9 5.5 5.7 6.4 6.4 6.1 6.2 6.6 6.6 6.5 6.1 5.6 5.9 6.0 5.7 5.9 5.8 5.7 5.6 5.7 5.7 5.8
7.9 7.9 7.7 7.5 7.2 7.2 7.3 7.3 7.2 7.2 7.9 7.9 7.5 7.0 7.4 7.1 7.1 7.1 6.6 6.0 6.0 6.0 6.2 6.2 6.0 5.7 5.8 5.8 6.1 6.1 5.9 6.0 5.7 5.6 5.4 5.5 5.4 5.5 5.7 5.6 5.6 5.7 5.6 5.6
7.9 8.0 7.9 7.8 7.5 7.3 7.3 7.3 7.2 7.4 7.8 7.8 7.6 7.4 7.2 7.5 7.1 7.0 6.8 6.5 6.4 6.3 6.3 6.3 6.1 6.0 6.0 5.9 5.9 5.8 5.7 5.8 5.7 5.6 5.6 5.7 5.7 5.7 5.6 5.6 5.8 5.7 5.7 5.7
8.1 7.9 7.9 7.9 7.7 7.8 7.7 7.6 7.2 7.1 7.7 7.7 7.2 7.1 7.0 7.0 6.7 6.7 6.7 6.2 6.2 6.1 6.2 6.1 6.1 6.2 6.2 6.2 6.2 6.2 6.1 6.0 5.9 5.9 5.9 5.8 5.9 5.9 5.9 5.9 5.9 6.0 5.9 6.0
8.0 7.8 7.6 7.7 7.6 7.8 7.8 7.6 7.6 7.5 7.4 7.5 7.2 7.2 6.9 6.3 5.9 5.8 5.8 5.7 5.7 5.7 6.0 5.9 6.1 6.0 5.9 6.1 6.2 6.3 6.4 6.3 6.2 5.9 5.8 5.9 5.8 5.8 5.9 6.0 5.9 6.0 6.1 6.0
7.8 7.6 7.5 7.4 7.4 7.4 7.5 7.4 7.2 7.3 7.3 7.2 7.2 7.1 7.1 6.8 6.4 6.0 5.6 5.3 5.4 5.8 6.0 6.0 6.0 5.8 6.0 6.0 5.9 6.1 6.1 6.1 6.2 6.1 6.0 6.1 6.1 6.0 5.9 6.1 6.1 5.8 5.7 5.7
Wind_Speed
2 5 6 6 5 5 3 2 1 2 6 4 3 4 9 8 12 8 8 13 10 14 10 10 11 9 8 7 7 7 8 7 5 3 3 2 2 1 1 4 7 8 7 6
5 4 7 7 4 4 2 1 1 2 2 4 5 5 1 8 15 15 6 2 11 9 8 10 11 9 9 10 8 6 8 9 6 3 2 3 3 2 1 2 4 7 6 7
6 2 9 6 4 4 2 5 4 3 6 6 4 3 4 3 3 12 8 5 6 7 12 12 12 12 9 9 10 9 10 10 7 5 3 3 3 3 2 1 2 4 7 7
3 2 4 4 4 5 3 6 6 10 4 3 2 4 4 8 6 12 17 11 3 8 6 8 12 12 13 11 8 7 6 9 6 6 5 5 3 3 3 3 2 3 7 7
5 2 2 2 6 8 5 3 8 6 5 4 2 2 2 9 10 12 18 15 9 5 7 11 12 15 12 11 10 9 6 6 6 6 5 5 4 2 2 2 5 3 3 4
5 2 5 7 5 9 8 9 8 5 4 1 4 3 3 6 12 13 15 17 14 2 4 5 2 4 5 5 6 7 8 6 7 6 6 6 6 5 3 3 3 3 2 1
4 4 3 4 4 2 5 5 3 3 1 5 2 4 5 5 5 15 19 19 18 6 2 2 7 7 7 7 7 7 10 7 6 7 6 6 6 6 6 4 4 4 2 2
5 4 6 4 8 9 8 8 5 5 5 3 3 4 3 2 4 7 16 20 13 8 2 2 2 4 6 7 6 6 9 7 7 6 6 5 6 3 3 4 3 4 3 3
3 5 4 5 4 7 6 4 5 7 3 4 3 1 2 5 5 6 12 16 15 13 6 4 3 1 4 7 7 6 5 6 7 6 5 5 4 5 4 4 4 3 3 3
5 1 2 5 1 3 6 5 3 2 6 4 3 3 4 7 8 8 9 13 12 11 9 3 3 3 0 4 6 7 7 7 5 5 5 5 4 4 3 3 5 5 4 4
5 3 6 1 4 1 3 0 5 5 3 6 4 5 1 6 8 10 9 8 9 9 9 9 5 4 2 2 4 6 8 9 7 5 4 5 4 4 4 4 4 4 3 4
1 5 1 4 3 3 2 2 4 5 4 2 3 3 3 6 7 11 9 8 4 5 4 4 1 7 8 4 4 4 5 7 5 5 4 3 2 1 4 5 5 5 5 6
4 2 3 8 6 5 5 4 3 2 3 5 6 4 1 8 9 7 10 8 7 6 5 4 4 3 7 8 6 4 8 12 6 5 6 5 5 3 3 5 5 5 4 3
6 2 5 5 4 3 5 6 2 4 3 5 4 8 7 10 9 7 8 9 8 6 5 3 4 6 6 10 8 6 5 8 7 5 7 8 5 5 4 3 3 3 3 3
4 3 2 3 3 2 1 6 8 5 3 5 7 10 17 14 13 11 9 10 8 6 5 3 1 4 10 9 9 6 6 6 5 3 7 6 6 6 5 3 3 4 4 2
3 0 0 1 1 5 3 6 7 5 3 3 8 1 7 8 7 10 11 11 10 8 7 6 5 5 7 9 9 8 8 6 5 7 9 7 6 6 7 5 4 7 7 6
3 4 3 3 4 3 4 5 5 4 1 5 5 5 13 10 11 11 10 11 11 10 10 9 8 9 10 11 8 9 9 8 11 10 9 7 5 6 6 6 5 6 6 5
5 4 3 2 2 2 6 2 8 4 4 5 3 7 9 11 5 8 9 11 11 10 11 11 9 10 12 12 13 12 10 10 10 9 8 6 6 7 6 5 4 5 3 6
4 5 3 3 1 4 6 5 2 4 4 3 6 9 11 10 12 6 9 9 7 7 8 9 11 11 12 12 11 12 10 9 10 8 7 6 5 6 5 6 5 5 3 3
5 7 4 2 3 5 4 3 3 4 6 4 7 10 15 15 6 4 11 11 10 11 9 8 12 11 11 9 10 11 8 8 8 6 5 5 5 6 5 4 4 2 2 4
4 4 4 2 2 5 4 8 5 4 5 3 8 13 14 9 4 6 11 10 7 6 10 10 8 11 8 7 10 10 8 8 6 6 6 6 5 6 5 5 4 5 6 6
4 4 2 2 2 3 5 6 1 4 2 4 4 3 5 6 11 14 11 11 9 10 9 8 10 8 6 6 10 9 9 4 5 7 7 6 6 6 6 8 7 8 8 8
0 5 4 6 5 4 5 4 4 2 2 1 6 5 8 13 10 11 9 10 8 8 7 6 9 8 5 6 8 9 3 5 6 7 7 7 7 7 7 8 7 6 7 6
1 2 2 3 2 2 5 5 6 4 1 5 7 10 11 13 12 11 10 9 8 7 8 7 9 8 6 5 7 7 5 5 7 8 7 6 7 7 8 6 6 6 6 6
4 2 3 2 4 1 0 2 3 3 5 11 8 8 14 14 13 10 7 7 8 7 7 7 8 8 7 6 6 5 5 6 7 6 6 6 6 6 6 6 6 6 4 4
2 4 4 5 4 3 2 6 2 2 2 7 10 7 8 10 16 19 15 12 12 10 7 7 6 8 7 6 5 5 5 6 6 6 5 5 5 4 5 5 5 9 10 13
Wind_Direction
202 101 181 180 191 139 120 89 273 28 164 101 129 106 165 154 160 166 165 193 199 192 177 163 154 154 153 156 170 175 153 158 150 142 134 132 168 183 224 172 165 178 174 156
61 181 210 160 155 132 137 101 96 100 72 96 159 93 230 170 185 182 149 41 219 188 149 161 159 158 168 169 187 189 163 166 171 161 156 149 146 174 146 155 181 200 188 193
143 255 151 131 141 137 191 168 172 146 104 58 117 83 170 222 199 184 151 186 307 193 175 169 174 168 171 180 188 195 176 174 174 172 122 87 98 94 103 144 220 194 193 203
161 201 139 123 158 142 207 195 155 144 114 166 30 205 239 160 179 186 182 195 243 322 216 180 172 181 180 194 185 183 196 169 174 173 164 157 161 156 182 172 172 201 202 197
243 154 141 132 205 167 213 152 160 159 97 113 231 123 244 154 185 194 189 178 184 289 216 196 188 191 186 182 190 178 186 175 165 181 182 159 158 160 153 142 145 177 197 212
223 239 160 205 197 174 160 82 54 60 89 360 209 162 220 188 219 185 181 176 186 280 325 209 182 158 179 177 187 169 167 197 170 168 186 181 169 170 154 147 163 180 162 197
304 260 246 151 120 89 78 83 48 51 65 212 297 138 261 287 213 189 179 178 190 189 333 156 179 181 178 170 183 178 171 180 183 166 177 181 181 187 185 179 169 168 162 187
163 304 186 176 178 179 188 158 151 160 179 215 87 216 268 338 337 185 172 180 168 178 197 159 109 194 183 168 173 194 178 170 173 176 187 186 183 175 192 188 189 181 186 197
144 280 300 200 189 145 185 191 185 102 38 95 202 275 227 99 79 134 175 164 167 180 207 174 202 358 193 171 181 176 170 165 180 182 168 166 188 189 208 203 195 196 185 191
191 324 274 296 68 49 161 165 91 22 133 195 227 236 232 168 150 141 151 166 172 178 195 188 191 193 338 195 170 164 156 174 160 161 170 170 177 197 192 190 218 201 196 189
129 99 289 7 36 356 346 344 52 112 114 154 167 249 287 171 160 152 168 160 162 169 193 215 210 166 100 20 147 153 156 154 145 153 164 165 169 186 191 179 215 249 207 199
338 129 319 251 309 247 320 103 124 137 210 107 151 245 312 170 149 165 165 158 131 126 144 146 161 206 172 134 129 129 125 112 103 120 88 49 63 222 208 189 191 212 230 239
190 13 37 346 357 8 43 321 125 125 91 189 136 244 51 138 146 173 155 156 145 131 135 152 169 147 159 140 104 112 125 108 107 99 90 63 31 14 309 265 211 197 205 203
72 95 147 184 202 196 329 333 341 117 114 167 204 156 195 173 157 155 155 142 131 128 133 146 160 138 142 129 130 140 137 113 102 69 75 61 30 5 337 327 248 208 187 180
88 120 140 165 218 234 161 325 328 199 182 158 195 180 195 183 161 157 139 125 122 120 129 127 109 131 128 116 100 110 123 113 98 116 77 60 41 22 19 26 81 87 87 118
29 106 100 215 306 271 111 3 25 55 83 41 129 148 136 125 134 145 144 135 126 119 115 116 109 81 95 105 116 95 135 97 83 72 53 48 44 31 24 21 42 81 76 64
72 115 44 259 326 323 6 2 355 279 215 142 169 223 151 146 157 145 137 134 133 120 111 92 82 93 101 100 98 86 90 84 68 65 57 49 37 57 49 13 25 71 77 81
124 83 90 213 337 138 234 121 99 103 7 338 289 154 147 123 103 110 131 130 125 124 116 105 97 86 78 84 87 90 82 84 78 70 63 48 45 43 41 48 31 46 52 73
44 117 84 127 201 288 318 31 31 106 291 281 147 131 116 115 105 79 123 117 106 109 101 107 107 102 95 91 89 83 79 76 78 70 70 56 54 57 47 39 19 37 8 61
57 65 106 97 126 204 261 305 290 153 318 162 160 142 140 144 153 157 127 121 122 121 111 107 111 106 99 101 105 100 93 88 79 73 61 60 59 53 41 34 37 2 356 31
18 13 123 124 208 290 288 304 305 119 241 148 179 161 157 167 165 141 130 115 120 109 114 116 102 106 103 107 104 90 89 76 76 75 68 56 52 65 38 42 34 28 34 48
162 129 168 86 96 265 357 320 212 226 202 151 134 147 122 104 129 137 133 124 121 120 109 106 103 97 95 97 98 92 77 67 78 79 69 58 48 57 57 61 45 39 39 40
110 180 184 166 211 252 283 246 287 272 38 49 120 101 126 126 123 133 122 118 121 125 114 106 110 100 70 79 99 97 86 83 77 69 56 54 59 55 53 59 55 57 45 42
280 126 127 98 265 315 332 323 337 350 125 122 115 123 129 130 131 127 123 123 127 135 130 131 120 110 97 85 89 103 108 93 84 76 60 51 54 47 42 48 48 52 43 37
206 122 146 302 279 275 301 2 345 34 97 106 111 135 140 141 132 119 113 145 161 149 144 145 137 134 133 128 114 115 110 103 92 84 76 64 58 48 45 43 40 48 46 44
192 171 149 217 225 154 253 320 320 144 147 140 132 127 156 172 164 165 177 171 156 162 153 142 144 142 145 137 131 126 117 111 108 94 87 79 75 65 60 55 39 22 30 32